Location: Peebles
(55.6412°N, 3.1714°W)
Time: 15:20:30
(UTC+01:00)

Cosmos 1605 Rocket - Pass Details

Date: 26 September 2021
Orbit: 946 x 1005 km, 82.9° (Epoch: 18 October)

Event Time Altitude Azimuth Distance (km) Brightness Sun altitude
Exits shadow 23:51:45 56° 318° (NW) 1,133 4.4 -34.0°
Drops below altitude 10° 23:57:10 10° 7° (N) 2,723 7.0 -34.3°
Sets 23:59:45 0° 11° (NNE) 3,683 7.8 -34.4°
